EW7034 Weather Reports


time (UTC)temp
C
wind
direction
speed
KPH
gust
KPH
rain 1hr
cm
rain 24hr
cm
rain mn
cm
humidity
%
barometer
mb
20260506044505 1 0.0 0.0 0.00 0.00 0.00 92 1015.4
20260506043016 1 0.0 0.0 0.00 0.00 0.00 92 1015.4
20260506041512 2 0.0 0.0 0.00 0.00 0.00 92 1015.4
20260506040015 2 0.0 0.0 0.00 0.00 0.00 92 1015.5
20260506034513 2 0.0 0.0 0.00 0.00 0.00 92 1015.5
20260506033008 2 0.0 0.0 0.00 0.00 0.00 92 1015.7
20260506031510 3 0.0 0.0 0.00 0.00 0.00 93 1015.8
20260506030011 3 0.0 0.0 0.00 0.00 0.00 93 1015.9
20260506024524 3 0.0 0.0 0.00 0.00 0.00 93 1016.0
20260506023012 3 0.0 0.0 0.00 0.00 0.00 93 1016.0
20260506021516 2 0.0 0.0 0.00 0.00 0.00 93 1016.0
20260506020009 2 0.0 0.0 0.00 0.00 0.00 93 1016.1
20260506014524 2 0.0 0.0 0.00 0.00 0.00 93 1016.3
20260506013024 2 0.0 0.0 0.00 0.00 0.00 92 1016.3
20260506011531 2 0.0 0.0 0.00 0.00 0.00 92 1016.5
20260506010013 2 0.0 0.0 0.00 0.00 0.00 91 1016.5
20260506004508 2 0.0 0.0 0.00 0.00 0.00 91 1016.5
20260506003009 2 0.0 0.0 0.00 0.00 0.00 91 1016.7
20260506001507 2 0.0 0.0 0.00 0.00 0.00 91 1016.6
20260506000010 3 0.0 0.0 0.00 0.00 0.00 90 1016.8
20260505234512 3 0.0 0.0 0.00 0.00 0.00 90 1016.9
20260505233010 3 0.0 0.0 0.00 0.00 0.00 90 1016.8
20260505231507 3 0.0 0.0 0.00 0.00 0.00 89 1016.9
20260505230010 4 0.0 0.0 0.00 0.00 0.00 89 1016.8
20260505224524 5 0.0 0.0 0.00 0.00 0.00 90 1016.9
20260505223018 5 0.0 0.0 0.00 0.00 0.00 89 1016.9
20260505221524 5 0.0 0.0 0.00 0.00 0.00 89 1016.8
20260505220023 5 0.0 0.0 0.00 0.00 0.00 89 1016.9
20260505214531 5 0.0 0.0 0.00 0.00 0.00 89 1016.8
20260505213017 5 0.0 0.0 0.00 0.00 0.00 88 1016.8
20260505211534 5 0.0 0.0 0.00 0.00 0.00 87 1017.0
20260505210023 5 0.0 0.0 0.00 0.00 0.00 86 1017.0
20260505204525 6 0.0 0.0 0.00 0.00 0.00 85 1016.9
20260505203041 6 0.0 0.0 0.00 0.00 0.00 84 1016.9
20260505201516 7 0.0 0.0 0.00 0.00 0.00 84 1016.8
20260505200022 7 0.0 0.0 0.00 0.00 0.00 84 1016.6
20260505194524 8 0.0 0.0 0.00 0.00 0.00 82 1016.7
20260505193026 8 0.0 0.0 0.00 0.00 0.00 80 1016.5
20260505191527 9 0.0 0.0 0.00 0.00 0.00 79 1016.4
20260505190019 10 0.0 0.0 0.00 0.00 0.00 75 1016.4
20260505184503 10 0.0 0.0 0.00 0.00 0.00 74 1016.4
20260505183004 10 0.0 0.0 0.00 0.00 0.00 75 1016.4
20260505181504 10 0.0 0.0 0.00 0.00 0.00 73 1016.4
20260505180004 10 0.0 0.0 0.00 0.00 0.00 73 1016.3
20260505174507 10 0.0 0.0 0.00 0.00 0.00 73 1016.4
20260505173003 10 0.0 0.0 0.00 0.00 0.00 73 1016.4
20260505171506 10 0.0 0.0 0.00 0.00 0.00 72 1016.6
20260505170007 10 0.0 0.0 0.00 0.00 0.00 75 1016.5
20260505164507 10 0.0 0.0 0.00 0.00 0.00 74 1016.6
20260505163004 10 0.0 0.0 0.00 0.00 0.00 75 1016.6
20260505161504 10 0.0 0.0 0.00 0.00 0.00 78 1016.8
20260505153021 10 0.0 0.0 0.00 0.00 0.00 76 1016.9
20260505151532 10 0.0 0.0 0.00 0.00 0.00 75 1016.8
20260505123014 10 0.0 0.0 0.00 0.00 0.00 76 1017.1
20260505121520 10 0.0 0.0 0.00 0.00 0.00 76 1017.0
20260505120027 10 0.0 0.0 0.00 0.00 0.00 73 1017.1
20260505114524 11 0.0 0.0 0.00 0.00 0.00 70 1017.0
20260505113002 11 0.0 0.0 0.00 0.00 0.00 70 1017.1
20260505111502 11 0.0 0.0 0.00 0.00 0.00 69 1017.1
20260505101503 10 0.0 0.0 0.00 0.00 0.00 75 1017.4
20260505100002 10 0.0 0.0 0.00 0.00 0.00 75 1017.5
20260505094501 9 0.0 0.0 0.00 0.00 0.00 76 1017.4
20260505093002 9 0.0 0.0 0.00 0.00 0.00 79 1017.4
20260505091503 10 0.0 0.0 0.00 0.00 0.00 78 1017.4
20260505090005 9 0.0 0.0 0.00 0.00 0.00 78 1017.3
20260505084527 9 0.0 0.0 0.00 0.00 0.00 78 1017.4
20260505083005 9 0.0 0.0 0.00 0.00 0.00 78 1017.4
20260505081508 9 0.0 0.0 0.00 0.00 0.00 77 1017.4
20260505080024 9 0.0 0.0 0.00 0.00 0.00 76 1017.3
20260505074515 9 0.0 0.0 0.00 0.00 0.00 78 1017.3
20260505073023 9 0.0 0.0 0.00 0.00 0.00 81 1017.3
20260505071507 8 0.0 0.0 0.00 0.00 0.00 83 1017.3
20260505070020 8 0.0 0.0 0.00 0.00 0.00 83 1017.2
20260505064515 8 0.0 0.0 0.00 0.00 0.00 85 1017.3
20260505063022 7 0.0 0.0 0.00 0.00 0.00 86 1017.4
20260505061524 7 0.0 0.0 0.00 0.00 0.00 86 1017.3
20260505060008 7 0.0 0.0 0.00 0.00 0.00 87 1017.2
20260505054516 7 0.0 0.0 0.00 0.00 0.00 87 1017.1
20260505053023 7 0.0 0.0 0.00 0.00 0.00 87 1017.1